Tracking 28790 objects as of 19-Apr-2024
HD Live streaming from Space Station
objects crossing your sky now

CZ-3B DEB

Track CZ-3B DEB now!


NORAD ID: 40167
Int'l Code: 2010-042U
Perigee: 1,378.8 km
Apogee: 40,259.5 km
Inclination: 26.7 °
Period: 743.7 minutes
Semi major axis: 27190 km
RCS: Unknown
Launch date: September 4, 2010
Source: People's Republic of China (PRC)
Launch site: Xichang Space Center, China (XSC)

Note: This is SATELLITE DEBRIS
Your satellite tracking list
Your tracking list is empty




NASA's NSSDC Master Catalog

Two Line Element Set (TLE):
1 40167U 10042U   24110.21982036  .00000060  00000-0  00000+0 0  9999
2 40167  26.7223 101.2081 7149775  16.2959 358.0771  1.93635608 81277
Source of the keplerian elements: AFSPC